[[{"header":{"parameterUnit":"m.s-1","parameterCategory":1,"la1":30.2991,"la2":30.254,"lo1":-89.0895,"lo2":-89.0444,"dy":0.0017,"dx":0.0017,"nx":28,"ny":28,"refTime":"2025-12-27T03:00:00:Z","depth":0,"parameterNumber":2,"parameterNumberName":"U-component_of_WINDS"},"data":[0,0,0,0,0,0,0,0,0,0,0,0,0,0,0,0,0,0,0,0,0,0,0,0,0,0,0,0,0,0,0,0,0,0,0,0,0,0,0,0,0,0,0,0,0,0,0,0,0,0,0,0,0,0,0,0,0,0,0.7037,0.7036,0,0.6997,0.6996,0.6996,0.7017,0.7019,0.702,0.7021,0.6979,0.6977,0.6975,0,0,0,0,0,0,0,0,0,0,0,0,0,0.7132,0.713,0.7037,0.7036,0.7036,0.6997,0.6996,0.6996,0.7017,0.7019,0.702,0.7021,0.698,0.6977,0.6974,0,0,0,0,0,0,0,0,0,0,0,0,0,0.7091,0.713,0.7037,0.7042,0.7042,0.6997,0.6996,0.6996,0.7017,0.7019,0.702,0.7022,0.698,0.6977,0.6974,0.6922,0,0,0.6964,0.6963,0,0,0,0,0,0,0,0,0.7094,0.7088,0.7042,0.7041,0.7041,0.7014,0.7015,0.6971,0.7017,0.7026,0.7021,0.7023,0.6989,0.6985,0.6974,0.692,0.6918,0.6964,0.6962,0.6961,0.696,0,0,0,0,0,0,0,0.7097,0.709,0.7021,0.7041,0.7041,0.7046,0.7042,0.7007,0.6999,0.7026,0.7027,0.7022,0.6989,0.6977,0.6973,0.6917,0.6964,0.6961,0.6959,0.6958,0.6822,0.682,0,0,0,0,0,0,0.7099,0.7092,0.7022,0.702,0.7072,0.7043,0.7039,0.7021,0.7,0.6998,0.7021,0.7023,0.6982,0.6977,0.6972,0.6912,0.6961,0.6958,0.6956,0.6823,0.6821,0.6819,0,0,0,0,0,0,0.7101,0.7093,0.7024,0.7056,0.7048,0.704,0.702,0.7019,0.7007,0.6996,0.6995,0.701,0.6983,0.6976,0.6935,0.691,0.6956,0.6953,0.6825,0.6823,0.682,0.6789,0,0,0,0,0,0,0.7104,0.7093,0.7073,0.7056,0.7046,0.6987,0.7018,0.7017,0.7002,0.7005,0.6985,0.6983,0.6984,0.694,0.6932,0.6907,0.6951,0.6828,0.6824,0.6821,0.6792,0.6785,0.678,0,0,0,0,0,0.7107,0.7064,0.7072,0.7063,0.702,0.6985,0.698,0.6981,0.7,0.698,0.6973,0.6984,0.6914,0.6935,0.6927,0.69,0.6829,0.6825,0.6821,0.6795,0.6787,0.678,0,0,0,0,0,0,0.7077,0.7062,0.707,0.702,0.7004,0.6989,0.6963,0.6972,0.695,0.6954,0.6956,0.6952,0.6909,0.69,0.6924,0.685,0.6875,0.6869,0.6857,0.685,0.6844,0.6847,0.6948,0,0,0,0,0,0.7065,0.7038,0.7026,0.6984,0.6976,0.6971,0.6956,0.6959,0.6942,0.6935,0.6925,0.6908,0.6883,0.6865,0.6841,0.6791,0.6788,0.6769,0.6763,0.6758,0.6753,0.6728,0.672,0.6807,0.6807,0.6807,0,0,0.7039,0.7028,0.701,0.6978,0.6965,0.6938,0.6965,0.6934,0.6914,0.693,0.6891,0.6883,0.6865,0.6819,0.6799,0.6811,0.6729,0.6753,0.6749,0.6747,0.6724,0.6715,0.6708,0.6804,0.6805,0.6805,0,0,0.6979,0.6967,0.6931,0.6919,0.6901,0.6899,0.6891,0.6875,0.6871,0.6832,0.6844,0.6821,0.6776,0.6763,0.6751,0.6689,0.67,0.6681,0.6649,0.6626,0.6619,0.6613,0.6593,0.6585,0.6676,0.6676,0.6676,0,0.6949,0.6908,0.6912,0.6881,0.6867,0.6882,0.6847,0.6835,0.681,0.68,0.6814,0.6761,0.6749,0.6702,0.6688,0.6676,0.6668,0.6683,0.662,0.6614,0.6608,0.6589,0.6581,0.6674,0.6675,0.6675,0.6675,0,0.6873,0.6845,0.6819,0.6796,0.6779,0.6746,0.6746,0.6728,0.6734,0.673,0.6692,0.6679,0.6654,0.6643,0.6646,0.6597,0.6606,0.6619,0.6644,0.6598,0.658,0.6572,0.6671,0.6672,0.6673,0.6673,0,0,0.6791,0.6773,0.6763,0.6754,0.6737,0.6715,0.6684,0.6661,0.6647,0.6629,0.6604,0.6568,0.6582,0.6568,0.657,0.6549,0.6504,0.6566,0.6566,0.6556,0.6451,0.6442,0.6433,0.6511,0.651,0.6508,0.6454,0,0.673,0.6677,0.6681,0.663,0.6605,0.6621,0.6594,0.6581,0.6578,0.6557,0.6553,0.6528,0.6547,0.6539,0.6519,0.6514,0.6483,0.6518,0.6489,0.6487,0.6493,0.6424,0.6413,0.6361,0.6446,0.6445,0.6444,0,0.6652,0.6634,0.6582,0.6571,0.6561,0.6537,0.6517,0.6496,0.6483,0.6482,0.6468,0.6475,0.6445,0.6471,0.6431,0.6454,0.6443,0.6439,0.6437,0.6435,0.6463,0.6421,0.6345,0.6338,0.6433,0.6434,0.6435,0,0.66,0.6562,0.6527,0.6518,0.6504,0.6488,0.6481,0.6469,0.6456,0.6439,0.643,0.6409,0.6398,0.6382,0.6384,0.6402,0.6344,0.6369,0.6343,0.6343,0.633,0.6331,0.6253,0.6321,0.6321,0.6321,0.6322,0,0.6532,0.65,0.6503,0.6481,0.6447,0.6452,0.6417,0.6413,0.6403,0.6381,0.6392,0.6372,0.6375,0.6355,0.6356,0.6324,0.6318,0.6318,0.6319,0.6317,0.6317,0.631,0.6314,0.6319,0.632,0.632,0.6321,0,0.6467,0.6468,0.6431,0.6422,0.6419,0.6394,0.6387,0.6367,0.6365,0.6338,0.6332,0.633,0.6307,0.6308,0.6281,0.6282,0.6243,0.6247,0.6247,0.6249,0.6224,0.6227,0.6138,0.6128,0.6202,0.6201,0.6201,0,0.6424,0.64,0.639,0.6377,0.637,0.6348,0.6335,0.634,0.6327,0.6311,0.6293,0.6272,0.6255,0.6218,0.6214,0.6194,0.6199,0.617,0.6196,0.6197,0.6201,0.6203,0.6201,0.6165,0.6164,0.6163,0.6162,0,0.6349,0.6351,0.6333,0.6315,0.63,0.6286,0.6273,0.6262,0.6266,0.625,0.6228,0.6215,0.6189,0.6168,0.615,0.6144,0.6154,0.6154,0.6148,0.6146,0.6148,0.6149,0.6235,0.6156,0.6157,0.6157,0.6158,0.6158,0.6294,0.6275,0.6266,0.6245,0.6237,0.6226,0.6207,0.6205,0.6187,0.6167,0.6171,0.6146,0.6136,0.6113,0.6105,0.6087,0.6097,0.6087,0.6084,0.6082,0.608,0.6151,0.6083,0.6083,0.6083,0.6083,0.6084,0,0.6221,0.6217,0.6198,0.6181,0.6166,0.6178,0.6166,0.6152,0.6131,0.612,0.6104,0.608,0.606,0.6056,0.6038,0.6024,0.6028,0.6019,0.602,0.6019,0.6071,0.6079,0.6016,0.6016,0.6016,0.6016,0.6016,0.6016,0.6181,0.615,0.6152,0.6117,0.6113,0.609,0.6082,0.6072,0.6064,0.6037,0.6021,0.6019,0.6012,0.5994,0.5977,0.5976,0.5969,0.5958,0.596,0.6008,0.6015,0.6022,0.603,0.5957,0.5956,0.591,0.5909,0.5909]},{"header":{"parameterUnit":"m.s-1","parameterCategory":1,"la1":30.2991,"la2":30.254,"lo1":-89.0895,"lo2":-89.0444,"dy":0.0017,"dx":0.0017,"nx":28,"ny":28,"refTime":"2025-12-27T03:00:00:Z","depth":0,"parameterNumber":3,"parameterNumberName":"V-component_of_WINDS"},"data":[0,0,0,0,0,0,0,0,0,0,0,0,0,0,0,0,0,0,0,0,0,0,0,0,0,0,0,0,0,0,0,0,0,0,0,0,0,0,0,0,0,0,0,0,0,0,0,0,0,0,0,0,0,0,0,0,0,0,2.0889,2.0889,0,2.0888,2.0888,2.0888,2.0879,2.0878,2.0878,2.0878,2.0875,2.0875,2.0876,0,0,0,0,0,0,0,0,0,0,0,0,0,2.0882,2.0882,2.0889,2.0889,2.0889,2.0888,2.0888,2.0888,2.0879,2.0878,2.0878,2.0878,2.0875,2.0875,2.0876,0,0,0,0,0,0,0,0,0,0,0,0,0,2.0883,2.0882,2.0889,2.0884,2.0884,2.0888,2.0888,2.0888,2.0879,2.0878,2.0878,2.0878,2.0875,2.0875,2.0876,2.0884,0,0,2.0876,2.0876,0,0,0,0,0,0,0,0,2.0883,2.0883,2.0885,2.0884,2.0884,2.0883,2.0884,2.0886,2.0879,2.088,2.0878,2.0877,2.0878,2.0878,2.0878,2.0883,2.0883,2.0876,2.0876,2.0876,2.0876,0,0,0,0,0,0,0,2.0883,2.0883,2.0888,2.0885,2.0884,2.0882,2.0882,2.0885,2.0881,2.088,2.088,2.088,2.0878,2.0878,2.0878,2.0883,2.0876,2.0876,2.0877,2.0877,2.0896,2.0896,0,0,0,0,0,0,2.0884,2.0883,2.0888,2.0888,2.0883,2.0882,2.0882,2.0884,2.0881,2.088,2.088,2.0879,2.0878,2.0878,2.0878,2.0888,2.0876,2.0877,2.0877,2.0895,2.0896,2.0896,0,0,0,0,0,0,2.0884,2.0884,2.0888,2.0886,2.0886,2.0883,2.0885,2.0884,2.0884,2.0881,2.088,2.0881,2.0878,2.0878,2.0883,2.0888,2.0877,2.0877,2.0895,2.0896,2.0896,2.0908,0,0,0,0,0,0,2.0884,2.0884,2.0887,2.0886,2.0886,2.0893,2.0885,2.0884,2.0885,2.0884,2.0882,2.0881,2.0878,2.0882,2.0883,2.0888,2.0877,2.0894,2.0895,2.0896,2.0907,2.0908,2.091,0,0,0,0,0,2.0883,2.089,2.0888,2.0888,2.089,2.0893,2.0894,2.089,2.0885,2.0888,2.0886,2.0881,2.0887,2.0883,2.0883,2.0889,2.0894,2.0895,2.0896,2.0906,2.0908,2.091,0,0,0,0,0,0,2.0891,2.089,2.0887,2.0894,2.0894,2.0892,2.0896,2.0892,2.0893,2.0892,2.0887,2.0886,2.0892,2.0891,2.0886,2.0897,2.089,2.0891,2.0897,2.0899,2.0901,2.0901,2.0877,0,0,0,0,0,2.0894,2.0898,2.0896,2.0902,2.0902,2.0899,2.09,2.0897,2.0897,2.0897,2.0895,2.0895,2.0897,2.0898,2.0899,2.0906,2.0906,2.091,2.0912,2.0913,2.0914,2.0919,2.0921,2.0899,2.0899,2.0899,0,0,2.09,2.0899,2.0901,2.0903,2.0903,2.0907,2.0899,2.0902,2.0905,2.0897,2.0902,2.0901,2.09,2.0906,2.0909,2.0905,2.092,2.0914,2.0916,2.0916,2.092,2.0922,2.0924,2.09,2.09,2.0899,0,0,2.0911,2.0911,2.0917,2.0917,2.0917,2.0915,2.0917,2.0915,2.0915,2.0919,2.0914,2.0917,2.092,2.092,2.092,2.0933,2.0929,2.0934,2.0942,2.0947,2.0948,2.095,2.0955,2.0957,2.0935,2.0935,2.0935,0,2.0918,2.0923,2.092,2.0924,2.0925,2.0919,2.0925,2.0925,2.0926,2.0927,2.0923,2.0927,2.0926,2.0933,2.0936,2.0937,2.0938,2.0934,2.0948,2.095,2.0951,2.0956,2.0958,2.0935,2.0935,2.0935,2.0935,0,2.0931,2.0935,2.0939,2.0941,2.0943,2.0948,2.0945,2.0947,2.0944,2.0943,2.0948,2.0947,2.0948,2.095,2.0947,2.0956,2.0954,2.0949,2.0942,2.0954,2.0959,2.096,2.0936,2.0936,2.0936,2.0936,0,0,2.0947,2.0948,2.095,2.0951,2.0951,2.0954,2.0959,2.0961,2.0963,2.0964,2.0968,2.0971,2.0968,2.0968,2.0965,2.0969,2.098,2.0964,2.0964,2.0967,2.0991,2.0995,2.0997,2.0977,2.0977,2.0978,2.0991,0,2.0959,2.0968,2.0966,2.0974,2.0978,2.0973,2.0977,2.0978,2.0977,2.098,2.0978,2.0981,2.0975,2.0976,2.0979,2.0978,2.0985,2.0977,2.0981,2.0981,2.0982,2.0999,2.1003,2.1016,2.0993,2.0993,2.0994,0,2.0974,2.0976,2.0986,2.0987,2.0988,2.0992,2.0995,2.0997,2.0998,2.0997,2.0998,2.0995,2.0999,2.0993,2.0999,2.0994,2.0995,2.0995,2.0995,2.0996,2.0988,2.1001,2.102,2.1023,2.0996,2.0996,2.0996,0,2.0985,2.0991,2.0998,2.0999,2.1,2.1003,2.1003,2.1004,2.1006,2.1007,2.1009,2.1011,2.1012,2.1014,2.1011,2.1006,2.1018,2.1011,2.1018,2.1018,2.1021,2.102,2.1041,2.1021,2.1021,2.1021,2.1021,0,2.0999,2.1005,2.1003,2.1007,2.1014,2.1011,2.1018,2.1018,2.1019,2.1022,2.1018,2.1022,2.1018,2.1021,2.1018,2.1025,2.1025,2.1024,2.1024,2.1025,2.1025,2.1026,2.1025,2.1021,2.1021,2.1021,2.1021,0,2.1013,2.1012,2.1019,2.102,2.102,2.1025,2.1026,2.1029,2.1029,2.1034,2.1035,2.1033,2.1037,2.1034,2.1037,2.1036,2.1044,2.1042,2.1044,2.1044,2.1051,2.1051,2.1073,2.1076,2.1054,2.1054,2.1054,0,2.1022,2.1026,2.1028,2.1031,2.1032,2.1036,2.1039,2.1036,2.1039,2.1041,2.1044,2.1048,2.1051,2.1057,2.1056,2.1059,2.1057,2.1065,2.1057,2.1059,2.1058,2.1057,2.1058,2.1066,2.1066,2.1066,2.1067,0,2.1038,2.1037,2.1041,2.1045,2.1048,2.1051,2.1053,2.1056,2.1053,2.1056,2.1061,2.1063,2.1067,2.1071,2.1074,2.1074,2.107,2.1069,2.1071,2.1072,2.1074,2.1074,2.1049,2.1069,2.1068,2.1068,2.1068,2.1068,2.1049,2.1054,2.1056,2.1061,2.1063,2.1065,2.1069,2.107,2.1073,2.1077,2.1075,2.1081,2.1082,2.1085,2.1086,2.109,2.1087,2.1089,2.109,2.1091,2.1092,2.1073,2.109,2.109,2.109,2.109,2.109,0,2.1066,2.1067,2.1072,2.1076,2.108,2.1077,2.1079,2.1083,2.1088,2.109,2.1093,2.1098,2.1102,2.1102,2.1105,2.1109,2.1107,2.111,2.1109,2.111,2.1094,2.1093,2.1111,2.1111,2.1111,2.1111,2.1111,2.1111,2.1075,2.1082,2.1082,2.1091,2.1092,2.1098,2.11,2.1103,2.1104,2.1111,2.1115,2.1115,2.1116,2.112,2.1123,2.1123,2.1125,2.1128,2.1127,2.1113,2.1111,2.1109,2.1107,2.1128,2.1128,2.1142,2.1143,2.1143]}]]